Regional Weather Roundup
Issued by NWS

Home | Current Version | Previous Version | Text Only | Print | Product List | Glossary On
Versions: 1 2 3 4 5 6 7 8 9 10 11 12 13 14 15 16 17 18 19 20 21 22 23 24 25 26 27 28 29 30 31 32 33 34 35 36 37 38 39 40 41 42 43 44 45 46 47 48 49 50
000
ASUS44 KFWD 281515
RWRTX
NORTH TEXAS HOURLY WEATHER ROUNDUP
NATIONAL WEATHER SERVICE FORT WORTH TX
1000 AM CDT THU JUL 28 2016

NOTE: "FAIR" INDICATES FEW OR NO CLOUDS BELOW 12,000 FEET WITH NO
SIGNIFICANT WEATHER AND/OR OBSTRUCTIONS TO VISIBILITY.

TXZ118-119-281600-
DALLAS/FORT WORTH METROPLEX

CITY           SKY/WX    TMP DP  RH WIND       PRES   REMARKS
DFW AIRPORT    PTSUNNY   84  71  65 SW10      29.99F
DALLAS LOVE    CLOUDY    85  72  65 SW7       30.00S HX  91
FTW MEACHAM    CLOUDY    85  71  63 SW9       30.00S HX  90
DAL-EXECUTIVE  CLOUDY    84  68  58 VRB6      30.00F
FTW-ALLIANCE   CLOUDY    83  71  67 SW8       30.00S
FTW-NAS-JRB    CLOUDY    84  70  62 SW10      30.00F
FTW-SPINKS     SUNNY     82  72  69 SW12G17   30.03S
ARLINGTON      PTSUNNY   82  72  71 VRB7      30.01S
GRAND PRAIRIE  SUNNY     82  72  69 SW5       30.02F
ADDISON        PTSUNNY   82  72  69 S8        30.01F
MESQUITE       SUNNY     82  73  74 S8        30.01S
LANCASTER      CLOUDY    85  72  65 SW12      30.02S HX  90
$$

TXZ091>094-102>105-117-120-121-131>134-281600-
NORTH CENTRAL TEXAS

CITY           SKY/WX    TMP DP  RH WIND       PRES   REMARKS
SHRMAN/DENISON MOSUNNY   86  73  63 W10       30.01S HX  93
GAINESVILLE    CLOUDY    80  73  76 SW3       30.02S
BOWIE          CLOUDY    84  71  65 SW5       30.01F HX  90
BRIDGEPORT     SUNNY     84  72  67 SW5       30.02F
DECATUR        SUNNY     81  70  69 SW7       30.01F
DENTON         CLOUDY    83  74  74 SW8       30.00F
MCKINNEY       CLOUDY    84  72  67 SW10      30.00F
GREENVILLE     RAIN      81  72  74 SW7       30.01F
ROCKWALL       RAIN      78  74  86 SW9       30.00S
TERRELL        CLOUDY    83  74  74 SW12      30.01F
WAXAHACHIE     CLOUDY    82  72  72 SW14      30.02F
CLEBURNE       CLOUDY    82  75  78 S9        30.04S
GRANBURY       CLOUDY    88  69  53 SW10      30.02F HX  92
$$

TXZ083>090-098>101-113>116-127>130-139>142-154-155-281600-
WESTERN NORTH TEXAS

CITY           SKY/WX    TMP DP  RH WIND       PRES   REMARKS
WICHITA FALLS  SUNNY     84  71  65 S5        29.99F
WF-KICKAPOO    SUNNY     84  70  61 CALM      30.00F
VERNON         MOSUNNY   84  67  56 SE5       30.03F
ABILENE        SUNNY     83  69  62 SW14      30.07S
CISCO          CLOUDY    82  70  65 SW13      30.07S
BRECKENRIDGE   SUNNY     86  68  54 SW8       30.03F HX  90
GRAHAM         PTSUNNY   82  72  70 S6        30.00F
MINERAL WELLS  PTSUNNY   83  72  69 SW9       30.01S
STEPHENVILLE   CLOUDY    80  69  70 SW5       30.08R
COMANCHE       MOSUNNY   77  72  84 SW6       30.06R
BROWNWOOD      CLOUDY    79  68  69 S10       30.06S
COLEMAN        CLOUDY    79  70  74 SW6       30.08R
$$

TXZ143>147-156>162-174-175-281600-
CENTRAL TEXAS

CITY           SKY/WX    TMP DP  RH WIND       PRES   REMARKS
WACO           CLOUDY    81  73  76 SW10      30.02S
WACO-MCGREGOR  CLOUDY    81  75  82 SW7       30.03S
HILLSBORO      CLOUDY    79  73  81 S10       30.03S
CORSICANA      CLOUDY    85  76  74 SW10      30.02F HX  94
MEXIA          CLOUDY    85  76  75 SW8G18    30.02S HX  94
HEARNE         PTSUNNY   82  77  83 CALM      30.04S HX  91
CAMERON        PTSUNNY   84  75  75 SW10G17   30.03S HX  92
TEMPLE         CLOUDY    84  75  74 S10       30.04S HX  92
KILLEEN        NOT AVBL
KILLEEN-SKYLRK CLOUDY    84  74  71 SW12      30.04  HX  91
FORT HOOD      CLOUDY    83  73  72 SW8       30.01F
GATESVILLE     CLOUDY    81  73  78 SW8       30.06S
HAMILTON       CLOUDY    78  75  91 SW8       30.06S
LAMPASAS       CLOUDY    83  75  75 SW12G17   30.04S HX  90
$$

TXZ095>097-106>112-122>126-135>138-148>153-164>167-281600-
EAST TEXAS

CITY           SKY/WX    TMP DP  RH WIND       PRES   REMARKS
PARIS          MOSUNNY   84  68  58 W14       30.00S
SULPHUR SPRNGS LGT RAIN  79  76  91 SW5       30.02F
MOUNT PLEASANT CLOUDY    83  74  75 SW7       30.02S
GILMER         CLOUDY    79  76  92 SW6       30.01R
MINEOLA        PTSUNNY   82  77  83 SE8       30.01F HX  91
TYLER          CLOUDY    83  77  82 SW9       30.01S HX  92
LONGVIEW       CLOUDY    81  77  88 SW9       30.00S
MARSHALL       CLOUDY    78  74  89 SW6       30.03R
ATHENS         CLOUDY    81  77  89 W6        30.01S
PALESTINE      CLOUDY    82  77  84 SW9       30.03S HX  91
JACKSONVILLE   CLOUDY    80  77  88 SW6       30.05S
HENDERSON      CLOUDY    82  77  85 SW7       30.03R
CENTER         CLOUDY    83  81  93 SW3       30.03S HX  96
NACOGDOCHES    CLOUDY   N/A N/A N/A W8        30.01S
LUFKIN         CLOUDY    84  77  79 SW9       30.02S HX  94
$$

SUPPLEMENTAL OBSERVATIONS (CENTRAL)

CITY           SKY/WX    TMP DP  RH WIND       PRES   REMARKS
DENISON DAM      N/A     82  72  69 W9          N/A
CADDO GRASSLND   N/A     82  72  69 SW7         N/A
PAT MAYSE LAKE   N/A     79  75  89 S8          N/A
GREENVILLE       N/A     82  73  74 SW7         N/A
CEDAR HILL       N/A     84  72  65 SW7         N/A
MCGREGOR         N/A     81  77  89 SW5         N/A
TEMPLE           N/A     82  72  69 SW6G14      N/A
$$

SUPPLEMENTAL OBSERVATIONS (WEST)

CITY           SKY/WX    TMP DP  RH WIND       PRES   REMARKS
MILLERS CREEK    N/A     82  72  69 SW6         N/A
LBJ GRASSLAND    N/A     82  72  69 SW5         N/A
GRANBURY         N/A     88  70  55 SW12        N/A  HX  92
HAMBY            N/A     84  68  58 SW9         N/A
IVIE RESERVOIR   N/A     81  72  74 SE3         N/A
COLORADO BEND    N/A     79  72  78 SW5         N/A
$$

SUPPLEMENTAL OBSERVATIONS (EAST)

CITY           SKY/WX    TMP DP  RH WIND       PRES   REMARKS
CLARKSVILLE      N/A     77  75  94 SW1         N/A
TEXARKANA        N/A     75  73  94 CALM        N/A
LINDEN           N/A     81  77  89 SW2         N/A
GILMER           N/A     81  77  89 SW6         N/A
HENDERSON        N/A     82  75  78 SW10        N/A
LUFKIN           N/A     84  82  94 MISG        N/A  HX 101
S SABINE NF      N/A     84  77  79 SW2         N/A  HX  94
$$

SUPPLEMENTAL OBSERVATIONS ARE A COLLECTION OF AUTOMATED INSTRUMENTS
THAT ARE MAINTAINED BY A VARIETY OF FEDERAL AND STATE AGENCIES.
CERTAIN ELEMENTS...SUCH AS HUMIDITY VALUES AND SUSTAINED WIND
SPEEDS...MAY BE APPROXIMATED.





USA.gov is the U.S. government's official web portal to all federal, state and local government web resources and services.